Wind_Speed
26 22 20 16 10 10 12 11 13 14 16 18 17 16 16 16 17 19 20 21 21 21 19 18 18 18 18 18 17 15 15 15 14 14 15 16 15 14 13 12 13 13 13 14 15 16 16 17 17 18 20 20 20 20 20 20 20 21 22 23 24 25 25
22 21 20 15 8 8 11 11 13 14 14 14 14 14 14 14 15 16 19 21 22 22 20 19 19 19 19 18 16 15 15 15 15 15 15 15 14 13 12 13 13 14 14 15 16 17 17 18 18 19 21 22 23 23 23 24 24 24 25 25 25 26 27
22 22 21 15 9 9 11 12 13 14 13 13 12 12 12 12 13 14 17 19 21 21 20 18 18 19 19 18 17 16 16 15 15 15 15 14 13 13 13 14 14 15 16 17 17 18 18 19 20 20 22 24 24 26 27 28 28 28 28 29 28 28 28
24 24 22 16 14 15 14 13 13 13 13 12 12 12 11 11 12 13 15 17 18 19 17 17 18 18 18 18 17 17 16 16 16 15 14 14 13 13 14 15 16 16 16 17 18 18 18 19 20 21 23 25 26 27 29 30 31 31 32 32 32 31 31
24 23 22 18 18 20 17 13 12 13 13 13 13 12 10 11 12 11 11 14 16 17 17 18 18 18 18 18 17 18 17 16 15 15 14 14 14 14 15 16 17 18 18 18 19 20 21 21 22 23 25 27 28 29 31 31 31 32 34 35 35 35 35
22 21 20 18 20 22 19 15 14 13 14 14 14 13 11 11 11 10 9 11 14 16 18 19 19 18 19 19 19 18 17 16 15 15 15 14 15 15 16 17 18 20 20 20 21 23 23 24 25 26 29 30 30 32 33 35 36 36 36 38 39 39 38
24 25 21 19 21 22 22 19 16 15 15 16 15 12 11 11 11 10 9 10 13 15 17 19 20 20 21 21 20 18 17 16 16 15 15 14 15 15 17 19 20 22 22 22 23 24 25 27 28 28 30 32 32 33 34 36 38 36 36 37 39 39 38
24 26 23 21 22 23 24 22 18 17 16 17 14 11 12 12 12 11 9 9 12 14 15 18 19 20 21 21 20 18 17 17 16 15 15 15 15 16 19 21 22 22 22 22 24 25 26 29 29 29 33 37 37 36 36 35 34 34 35 37 37 36 36
23 25 23 23 23 23 23 20 18 16 16 16 14 13 14 14 13 13 10 9 10 11 13 15 17 18 20 19 18 18 17 16 15 15 15 16 17 19 20 21 22 21 22 25 27 27 28 30 31 33 36 38 37 36 34 33 32 33 35 36 36 36 37
27 29 26 25 24 22 21 20 18 17 16 16 16 16 16 17 15 14 13 10 8 10 12 13 14 16 17 17 17 17 17 15 14 15 16 18 18 18 19 20 21 22 24 28 30 30 30 31 31 32 33 32 31 31 30 30 32 33 35 35 35 37 38
28 27 27 27 24 22 22 22 21 19 18 17 18 18 18 19 18 15 15 13 10 11 13 13 14 14 14 15 16 15 15 14 14 16 18 19 17 16 17 19 20 21 24 26 26 26 27 27 26 27 29 29 30 31 31 32 33 34 35 36 37 38 39
25 22 27 29 25 24 25 24 23 21 20 19 19 19 19 20 21 18 16 14 12 14 15 15 15 14 13 14 14 14 14 14 16 18 18 18 15 14 15 18 20 21 23 22 21 22 23 25 27 29 31 32 33 33 33 33 34 35 35 35 36 37 38
32 25 29 31 28 28 27 26 25 23 22 21 20 20 20 21 22 20 16 14 14 15 16 16 16 15 14 15 15 14 14 17 18 18 17 16 15 14 15 18 20 21 23 23 23 24 26 29 31 33 35 36 36 36 36 35 35 33 32 32 33 35 36
37 34 33 33 32 31 30 28 27 24 23 22 21 21 21 21 23 20 17 14 14 16 16 16 15 15 16 16 15 15 16 18 19 18 18 17 16 15 15 18 20 20 22 24 26 28 29 31 33 34 36 37 38 38 37 37 37 33 30 30 32 33 34
37 38 38 37 35 33 32 30 26 25 24 22 21 21 21 22 23 21 18 16 15 16 16 15 15 16 16 16 15 16 18 19 18 18 18 17 17 16 16 18 19 20 22 25 28 30 32 33 35 36 37 37 39 39 37 37 36 31 28 29 31 33 33
37 38 39 39 37 34 33 29 25 24 23 22 22 22 22 23 22 20 19 17 15 15 15 15 16 15 15 16 17 18 19 18 18 18 18 18 19 19 19 20 22 23 24 26 28 31 33 34 36 38 38 37 37 37 35 32 28 25 27 30 31 32 33
40 39 38 37 36 35 32 28 25 24 23 22 23 23 24 24 22 20 20 19 16 15 15 16 16 16 16 17 18 18 18 17 17 18 18 19 20 21 22 23 25 26 27 28 30 32 34 35 38 40 39 37 36 36 32 28 25 25 29 30 30 32 34
41 39 36 34 35 35 32 28 25 23 22 23 24 25 25 24 23 21 21 20 17 16 17 18 18 18 19 18 18 17 16 16 17 18 19 20 21 22 23 25 26 27 29 31 33 35 36 39 41 41 39 36 35 34 31 29 27 28 29 28 29 32 33
39 37 36 36 37 36 32 28 25 23 23 24 26 26 25 25 24 23 23 22 20 19 20 21 21 22 24 24 22 20 18 19 20 21 21 22 23 24 25 26 28 30 32 34 36 38 40 43 44 43 40 37 34 32 31 30 27 27 28 28 29 30 31
38 38 40 41 40 38 34 27 24 25 25 25 27 26 27 27 26 25 26 26 25 23 23 23 23 23 26 27 26 23 22 23 24 25 25 26 26 27 28 29 32 34 36 38 40 43 45 47 47 44 41 38 34 32 32 31 28 27 28 29 30 30 31
39 41 43 42 38 36 32 28 26 28 27 26 28 29 29 29 27 27 28 28 28 26 24 23 23 23 25 26 26 26 25 26 27 28 29 30 31 31 32 33 35 37 40 42 45 48 50 50 48 47 44 41 37 34 33 31 29 28 28 29 30 31 31
40 44 45 42 38 34 30 29 30 31 29 28 30 31 30 30 29 29 30 30 30 29 26 24 23 23 24 26 27 27 28 29 30 31 32 33 34 35 36 37 38 41 43 46 49 52 53 51 50 49 47 44 40 37 34 31 29 28 29 30 30 30 30
44 47 45 42 39 34 31 32 33 33 31 30 32 33 32 31 30 30 32 33 33 30 29 27 26 26 26 27 28 29 30 32 33 34 35 36 37 38 38 39 41 43 46 49 52 54 54 53 52 52 49 46 42 38 33 31 30 30 29 29 30 29 30
46 47 44 40 38 35 34 35 36 35 33 32 34 36 34 32 31 33 35 35 34 33 33 32 31 31 31 31 31 33 34 35 36 38 38 38 39 40 41 41 43 44 47 50 53 55 56 55 56 53 49 45 41 35 32 30 29 29 29 29 29 30 31
43 44 43 42 40 37 35 36 37 36 34 34 35 36 35 33 35 37 37 36 36 37 37 36 35 35 35 36 37 38 38 38 39 41 41 41 42 43 43 44 45 46 48 49 52 55 56 57 57 52 46 42 37 32 30 30 28 27 29 29 30 31 32
43 43 43 43 42 39 37 38 39 38 36 35 35 35 37 38 40 39 38 37 38 39 40 39 39 39 39 40 41 41 41 42 42 43 44 44 45 45 46 47 47 48 49 49 50 54 56 56 54 48 42 38 34 30 29 29 28 28 29 30 31 32 33
43 41 41 44 44 42 39 39 40 40 39 37 36 37 40 42 41 39 39 40 41 41 42 42 42 42 43 43 43 44 45 46 46 47 46 47 48 49 48 48 49 51 51 49 49 52 55 55 51 44 38 34 31 30 30 30 30 30 31 32 33 34 35
42 41 42 45 45 42 41 41 43 43 42 40 39 40 43 43 41 41 42 43 43 43 43 43 43 44 44 45 46 47 48 50 51 51 48 47 49 51 50 50 51 52 50 48 48 51 53 52 47 40 35 33 31 31 31 32 32 32 33 35 36 37 38
42 43 44 45 44 43 43 44 45 45 43 42 42 42 43 43 43 43 44 44 44 43 43 43 44 45 46 47 48 49 51 55 57 54 49 46 48 49 49 48 48 48 46 46 48 50 51 49 43 38 36 34 34 34 34 35 35 36 37 39 40 40 39
40 42 43 44 45 45 45 46 47 47 46 45 44 43 43 43 44 45 45 44 44 44 44 45 46 46 48 50 49 47 49 51 51 50 48 46 46 46 45 45 46 45 45 46 48 49 49 45 41 38 37 37 36 36 36 37 39 40 41 41 41 41 39
38 39 42 44 46 46 47 47 48 48 47 45 44 43 43 44 45 46 45 45 45 45 46 47 47 48 50 51 49 48 47 46 44 45 47 46 44 44 45 46 47 46 46 46 47 48 46 43 41 40 39 39 39 38 38 39 40 40 40 39 39 40 39
36 37 40 42 43 45 46 47 48 48 46 45 44 44 44 45 45 45 45 44 44 45 46 46 47 48 49 49 49 49 48 45 43 45 48 47 45 45 47 47 47 46 45 45 46 45 44 43 42 42 40 40 40 39 39 40 40 40 39 38 38 39 38
35 36 38 39 41 42 45 47 49 49 48 47 46 45 45 45 45 45 45 44 44 44 45 45 47 49 49 49 49 48 47 45 44 45 47 48 48 47 47 46 46 45 45 45 45 44 44 44 44 43 41 41 41 41 41 42 42 41 41 40 39 39 38
35 37 38 39 40 41 43 45 48 49 49 47 46 46 47 46 46 46 46 46 45 45 45 47 48 49 50 50 48 46 46 47 47 47 47 49 49 47 46 45 44 44 45 45 45 45 45 45 45 43 42 42 43 43 44 44 43 43 42 41 40 40 39
36 37 38 39 40 40 41 43 45 48 48 48 48 48 48 47 47 48 48 47 46 46 47 47 46 47 49 49 48 46 46 47 48 47 49 50 49 47 45 44 43 44 45 46 46 45 45 45 44 44 44 44 45 45 45 44 44 44 43 42 41 41 40
37 38 39 39 40 41 42 43 45 46 48 48 49 49 48 46 47 47 47 45 45 45 45 44 45 45 47 48 48 47 47 47 48 49 50 51 49 46 44 43 43 44 44 44 44 44 44 44 44 45 45 45 45 45 45 45 45 44 43 42 42 42 41
40 40 41 41 42 43 44 45 46 47 48 49 49 48 47 46 46 46 45 45 45 44 42 43 44 46 47 48 48 48 47 48 49 50 51 50 47 44 43 43 43 43 43 43 43 43 44 44 45 45 45 45 45 45 45 45 44 43 43 43 43 42 41
42 42 43 44 44 45 47 48 48 49 50 50 49 47 46 45 44 44 44 45 44 43 43 44 45 46 48 48 48 48 49 49 50 51 50 47 45 43 42 43 43 43 44 44 44 44 44 45 45 45 45 44 44 44 44 43 43 43 43 43 42 41 40
Wind_Direction
233 235 233 236 244 266 281 282 277 276 270 265 262 260 257 251 247 242 240 239 239 239 239 239 239 241 244 247 248 251 253 254 256 258 260 263 268 272 277 282 285 287 291 295 298 302 305 305 302 300 301 303 304 303 303 304 305 306 306 306 305 302 297
234 239 239 238 244 270 278 276 275 278 274 270 267 268 268 260 253 247 241 238 236 235 234 233 235 238 242 243 244 250 251 249 250 252 255 260 265 271 278 286 291 295 297 299 300 302 303 302 300 299 301 304 305 305 305 305 306 306 304 302 302 301 299
237 237 241 246 255 267 272 270 272 278 279 279 279 279 278 270 261 252 245 240 237 235 232 231 235 237 238 239 244 250 248 245 246 248 252 258 263 271 280 286 291 295 297 297 297 298 299 298 296 297 300 301 303 305 304 303 303 304 303 300 298 296 295
242 232 232 245 258 263 269 268 268 280 286 284 283 283 281 275 267 258 253 247 241 236 231 230 233 232 234 239 246 249 246 244 246 247 252 259 265 274 281 287 291 292 291 290 291 294 294 293 294 296 298 299 301 303 303 300 298 299 301 301 298 294 293
240 235 230 237 254 262 266 261 261 277 284 280 280 284 282 274 272 268 261 254 246 237 228 226 229 231 235 243 246 247 247 246 247 251 256 262 270 277 283 287 290 288 287 289 293 296 297 298 299 299 300 301 302 303 303 302 300 298 298 298 297 294 291
233 236 233 232 243 256 260 254 255 266 273 277 279 284 282 274 276 275 265 257 247 236 230 228 229 232 237 242 245 247 247 247 249 255 260 266 274 280 283 286 287 287 289 295 300 303 304 305 305 304 303 303 304 305 304 301 299 298 297 297 297 294 289
238 232 233 232 233 246 255 254 255 258 263 270 276 284 284 275 276 277 269 259 247 237 234 233 233 235 239 243 246 246 245 247 251 258 264 270 276 281 283 284 287 291 298 304 307 307 306 306 306 307 310 310 309 308 306 304 301 299 301 302 301 298 292
246 232 226 233 232 237 247 252 256 256 257 266 278 293 289 276 271 273 272 262 250 242 239 239 238 238 239 242 243 243 244 249 255 260 266 272 276 279 281 286 294 303 309 309 305 303 304 305 305 309 314 314 312 308 306 305 303 302 304 307 306 303 298
254 241 221 227 234 234 241 249 254 255 258 269 282 293 291 282 271 267 268 263 257 253 246 245 242 238 238 239 239 241 247 252 257 262 267 271 275 281 287 296 305 308 308 308 306 304 307 308 308 310 314 315 314 313 310 305 302 302 304 306 307 304 302
246 241 220 220 229 234 241 248 253 257 261 270 279 283 286 285 276 267 264 262 263 261 253 250 247 241 238 238 238 243 248 251 256 260 265 271 279 291 301 308 309 305 303 306 307 309 314 315 314 315 317 317 318 320 320 315 309 306 305 307 307 306 304
233 224 209 211 220 230 240 246 251 255 258 264 272 275 278 281 280 270 262 260 264 264 261 260 256 247 241 241 243 246 247 250 254 258 267 279 290 300 304 307 311 311 309 309 311 316 322 323 321 320 320 320 318 319 320 317 312 307 304 305 305 305 304
233 217 203 208 215 223 232 240 245 251 254 258 264 268 270 276 279 273 261 258 264 266 266 266 264 259 253 249 250 249 248 251 256 262 273 285 294 302 304 306 312 318 318 320 324 328 330 330 326 324 323 322 319 317 316 314 310 306 303 301 300 301 302
238 230 210 207 212 220 227 234 239 244 249 253 259 262 265 270 275 273 264 258 262 266 267 267 268 267 262 255 253 252 252 256 261 269 278 283 290 299 303 303 309 319 323 326 328 328 328 327 324 323 323 321 318 315 312 311 311 310 305 298 295 298 301
236 234 222 215 214 218 223 228 233 238 243 249 253 256 260 266 270 271 267 260 260 263 265 266 268 267 262 258 257 255 255 260 268 276 281 286 294 300 303 303 307 316 323 325 325 324 323 322 319 317 318 318 316 312 310 310 311 310 304 296 294 298 300
233 232 229 225 219 218 222 226 231 236 241 246 249 251 257 263 267 269 266 261 259 261 265 266 267 265 261 258 257 257 260 267 275 282 287 297 304 306 309 311 310 312 316 318 319 319 319 318 316 314 313 313 312 309 307 308 307 304 299 296 296 299 299
228 230 230 227 222 221 225 227 231 237 242 244 245 249 255 261 265 266 263 261 260 261 265 266 264 262 260 260 259 259 264 272 280 287 295 303 306 308 314 317 317 318 316 315 314 314 313 314 313 309 307 308 307 304 303 304 304 302 299 298 298 297 296
225 226 228 228 225 225 227 228 231 238 242 242 243 248 253 259 264 263 261 262 263 264 264 263 261 258 259 262 262 261 265 274 284 291 298 301 302 307 313 316 318 319 316 314 313 311 310 311 308 304 302 304 303 301 299 297 297 300 300 299 297 294 293
227 227 226 224 223 224 226 228 232 239 241 240 242 247 252 258 261 261 261 263 264 264 263 261 258 255 258 263 265 265 270 281 290 296 300 300 300 304 310 314 316 315 313 313 312 310 309 307 303 301 301 302 302 299 297 295 295 297 297 297 295 295 295
231 229 225 223 222 222 223 225 231 238 239 238 241 246 252 257 258 258 259 260 260 260 260 260 257 256 260 265 268 272 280 287 293 296 298 299 300 302 307 310 310 311 311 311 310 309 308 306 303 303 303 302 300 298 297 298 298 296 296 297 296 295 295
229 227 224 226 228 226 222 223 228 233 234 235 239 244 249 253 255 255 256 258 260 261 260 260 258 258 263 266 268 273 282 289 293 296 298 300 301 302 303 304 305 306 307 307 307 307 308 307 308 308 306 302 299 298 299 301 299 296 295 297 295 293 291
230 230 228 229 231 226 220 220 225 229 229 231 237 242 246 249 252 253 256 259 262 264 263 262 260 261 265 269 271 274 281 288 293 297 300 302 302 302 302 302 303 304 304 305 305 306 308 309 311 311 307 303 299 298 300 301 296 292 291 291 291 290 290
230 233 230 225 223 220 218 219 224 227 226 228 235 241 244 247 250 252 256 259 261 263 265 265 264 264 268 274 278 280 283 289 293 297 300 301 301 301 300 301 302 303 303 304 305 306 308 311 313 311 306 302 300 301 302 299 292 290 289 289 289 289 289
229 233 230 223 220 218 218 220 225 228 227 227 233 238 241 243 247 251 255 258 260 263 266 267 268 269 273 278 283 286 288 291 293 296 297 297 298 298 298 299 301 301 302 303 303 304 307 310 312 310 304 300 300 302 302 296 289 289 290 289 288 289 290
227 231 231 226 222 219 218 221 225 229 229 228 232 237 240 242 245 249 253 256 260 264 266 268 271 274 278 282 284 287 290 291 292 293 293 293 294 294 295 296 298 299 300 301 301 302 305 308 310 307 301 296 297 299 299 294 287 286 288 288 288 290 292
228 230 231 228 223 219 219 222 226 229 229 228 231 237 241 242 244 247 250 255 259 263 266 270 273 276 280 283 285 288 289 290 290 289 289 290 290 290 292 293 294 295 296 298 300 302 304 307 308 305 297 292 293 294 293 292 288 286 287 288 289 292 294
229 230 229 227 222 219 219 222 226 228 229 229 231 235 240 242 244 247 250 254 258 262 267 271 274 276 279 282 285 288 288 288 287 286 286 287 287 288 290 290 290 291 293 296 300 302 303 306 307 303 294 291 293 292 290 290 289 288 290 292 294 296 297
227 227 226 226 223 218 218 222 226 228 228 228 229 233 238 243 246 249 251 254 258 263 267 271 274 276 278 281 284 285 285 285 284 282 282 284 285 286 287 288 289 289 290 294 298 299 302 305 305 300 294 293 294 293 292 293 294 294 295 297 299 299 300
224 223 222 224 223 219 216 219 224 227 229 228 227 230 236 242 247 250 252 256 260 263 267 270 273 275 278 281 282 282 282 281 280 278 279 284 287 287 286 287 289 288 288 292 296 298 302 303 301 297 295 296 296 296 296 297 299 300 300 300 301 301 301
221 221 220 221 221 218 216 218 222 226 230 231 229 231 235 241 245 249 252 256 260 263 266 269 273 276 278 279 280 282 284 283 280 277 279 286 292 293 290 288 289 289 289 292 295 297 300 299 296 295 296 297 298 299 300 301 302 302 301 301 300 299 300
219 220 220 219 220 219 217 217 221 224 228 231 233 234 237 240 245 249 252 256 259 263 266 269 271 274 274 274 276 280 284 287 285 282 283 287 292 294 293 290 289 291 292 292 293 295 296 294 292 294 296 297 299 302 303 303 304 303 302 300 298 298 300
217 217 218 219 219 219 217 218 220 223 227 232 235 238 239 242 245 249 253 256 259 263 266 269 271 273 272 273 276 278 280 286 289 288 288 288 290 292 292 291 291 292 291 290 292 293 292 290 290 293 295 296 299 303 304 304 304 303 302 300 299 300 302
217 218 219 220 220 220 219 219 221 224 227 231 235 238 241 243 246 250 253 257 260 263 267 270 272 272 273 276 279 279 279 282 286 288 289 289 289 291 292 291 292 291 290 290 292 291 288 288 290 292 294 296 299 301 303 303 303 303 302 301 302 302 303
217 218 220 221 221 222 222 222 223 226 228 232 236 240 242 245 247 250 252 255 258 261 264 265 267 269 272 274 276 278 279 281 282 284 287 288 288 290 291 292 291 290 290 292 291 289 287 288 290 292 295 297 300 301 302 302 302 302 302 302 302 302 300
218 219 220 221 223 225 224 224 225 227 230 234 238 240 242 244 245 247 250 252 254 256 258 262 266 269 271 272 274 276 280 282 283 285 286 286 287 289 291 291 290 289 290 290 289 288 289 290 291 293 295 298 300 301 301 301 301 302 302 302 301 300 299
219 220 220 221 223 225 226 226 227 229 232 235 239 241 243 244 247 249 250 251 253 256 257 261 265 268 270 272 275 277 279 281 283 283 284 285 288 289 290 290 289 288 288 288 287 288 289 290 291 293 295 297 299 299 299 300 300 301 301 300 300 300 299
222 222 222 222 222 224 225 227 229 231 234 237 239 242 244 246 248 251 252 255 261 264 262 260 263 266 268 271 273 275 278 280 280 281 283 286 288 288 289 288 287 287 287 286 286 287 288 290 292 294 296 297 298 298 299 300 300 300 300 299 299 299 299
225 224 224 224 224 224 226 228 230 232 235 238 240 242 244 245 249 252 256 261 266 266 261 260 263 265 267 269 272 274 277 279 280 281 284 287 287 286 286 287 286 286 285 285 286 288 289 291 293 295 296 297 298 298 299 300 300 299 298 298 298 298 297
224 225 225 224 224 224 226 228 231 233 236 238 240 241 243 246 251 255 258 260 261 260 259 260 262 264 267 270 273 275 276 278 281 283 285 286 284 284 285 286 285 285 285 285 287 288 290 292 294 296 297 297 298 298 299 298 298 297 296 296 296 296 295
Height
5885 5888 5890 5890 5890 5892 5894 5895 5896 5896 5896 5896 5897 5897 5897 5898 5898 5898 5899 5900 5900 5901 5902 5903 5904 5905 5905 5906 5906 5906 5906 5907 5907 5907 5907 5906 5906 5906 5907 5907 5906 5906 5906 5905 5904 5904 5903 5903 5902 5901 5900 5900 5899 5898 5897 5896 5895 5894 5893 5892 5891 5890 5890
5883 5885 5888 5889 5888 5890 5892 5893 5894 5894 5895 5895 5895 5896 5895 5896 5896 5896 5896 5897 5897 5898 5900 5901 5902 5902 5903 5903 5904 5904 5904 5904 5905 5905 5905 5905 5905 5905 5905 5905 5905 5904 5904 5903 5903 5902 5901 5900 5899 5898 5898 5897 5896 5895 5894 5893 5893 5892 5891 5889 5888 5888 5887
5882 5883 5885 5887 5886 5888 5889 5891 5892 5892 5893 5893 5894 5894 5894 5894 5894 5893 5893 5894 5895 5896 5897 5898 5899 5899 5900 5901 5901 5901 5902 5902 5903 5903 5903 5903 5903 5904 5904 5903 5903 5903 5902 5901 5900 5899 5899 5898 5897 5896 5895 5895 5894 5893 5893 5892 5890 5889 5888 5887 5886 5885 5884
5880 5880 5881 5882 5883 5885 5887 5889 5890 5891 5891 5892 5892 5892 5892 5892 5892 5892 5892 5892 5892 5893 5895 5896 5896 5897 5897 5898 5899 5899 5899 5900 5901 5901 5901 5901 5902 5902 5902 5901 5901 5900 5899 5898 5897 5897 5896 5896 5895 5894 5893 5892 5892 5891 5890 5889 5888 5887 5886 5885 5883 5882 5881
5877 5878 5877 5878 5881 5883 5885 5886 5888 5889 5889 5890 5890 5890 5890 5890 5890 5890 5890 5890 5890 5891 5892 5893 5893 5894 5895 5895 5896 5896 5897 5898 5898 5899 5899 5900 5900 5900 5899 5899 5898 5897 5895 5895 5895 5895 5895 5894 5893 5893 5892 5891 5890 5889 5888 5886 5885 5884 5882 5881 5880 5879 5878
5875 5877 5875 5875 5878 5880 5882 5884 5885 5886 5887 5887 5888 5889 5888 5888 5888 5888 5888 5888 5888 5889 5889 5890 5891 5892 5892 5892 5893 5894 5895 5896 5896 5897 5897 5898 5898 5897 5896 5896 5894 5893 5893 5893 5894 5893 5893 5892 5892 5891 5890 5889 5888 5887 5885 5883 5882 5881 5879 5878 5876 5874 5873
5873 5875 5874 5874 5876 5878 5879 5881 5883 5884 5885 5885 5886 5886 5887 5887 5886 5886 5887 5887 5886 5887 5887 5888 5888 5889 5890 5890 5891 5892 5893 5894 5895 5895 5895 5895 5895 5894 5893 5892 5892 5891 5892 5892 5892 5891 5890 5889 5889 5888 5887 5886 5885 5884 5883 5881 5879 5877 5876 5874 5872 5870 5868
5871 5871 5874 5874 5873 5874 5875 5878 5880 5882 5883 5883 5884 5885 5885 5885 5885 5885 5885 5885 5885 5885 5886 5886 5886 5887 5887 5888 5889 5890 5891 5892 5892 5893 5892 5892 5892 5891 5891 5890 5890 5890 5891 5890 5889 5888 5887 5886 5885 5885 5884 5882 5881 5880 5878 5877 5876 5874 5872 5871 5869 5866 5865
5872 5869 5872 5873 5871 5871 5872 5875 5878 5879 5880 5881 5882 5883 5883 5883 5884 5883 5883 5883 5884 5884 5885 5884 5885 5885 5885 5886 5887 5889 5889 5890 5890 5890 5890 5890 5889 5889 5889 5889 5889 5889 5888 5887 5886 5885 5884 5883 5882 5881 5881 5879 5877 5875 5873 5872 5872 5870 5869 5867 5865 5863 5861
5870 5867 5869 5871 5871 5871 5871 5873 5875 5877 5878 5879 5880 5881 5881 5881 5882 5882 5882 5882 5882 5883 5883 5883 5883 5883 5884 5885 5886 5887 5887 5887 5888 5887 5887 5887 5887 5888 5888 5888 5888 5887 5886 5885 5884 5883 5882 5880 5879 5878 5877 5876 5874 5872 5870 5868 5867 5866 5864 5863 5861 5859 5856
5864 5863 5866 5868 5869 5870 5870 5871 5873 5874 5876 5877 5877 5878 5879 5879 5879 5880 5880 5880 5880 5881 5881 5881 5881 5881 5882 5883 5884 5885 5885 5885 5885 5884 5884 5885 5886 5887 5886 5885 5885 5884 5883 5882 5882 5881 5880 5878 5877 5876 5874 5873 5871 5869 5867 5865 5863 5862 5860 5858 5857 5854 5851
5859 5861 5863 5864 5866 5867 5868 5869 5870 5872 5873 5874 5875 5876 5877 5877 5877 5877 5878 5878 5878 5878 5878 5879 5879 5879 5880 5881 5882 5883 5882 5882 5882 5882 5883 5884 5885 5885 5884 5883 5883 5882 5880 5879 5879 5878 5877 5876 5874 5873 5871 5869 5867 5865 5864 5862 5860 5858 5857 5854 5852 5850 5847
5857 5859 5860 5861 5862 5863 5864 5866 5868 5869 5870 5871 5872 5873 5874 5875 5874 5875 5876 5876 5876 5876 5876 5876 5877 5878 5878 5879 5880 5880 5880 5880 5880 5880 5882 5883 5884 5884 5883 5881 5880 5879 5877 5876 5875 5875 5874 5873 5871 5870 5868 5866 5864 5862 5860 5858 5856 5855 5853 5851 5848 5846 5843
5855 5856 5856 5857 5858 5859 5861 5862 5864 5866 5867 5868 5869 5870 5871 5872 5872 5872 5873 5873 5873 5873 5874 5874 5875 5876 5876 5877 5877 5877 5877 5877 5877 5879 5880 5881 5881 5881 5881 5879 5878 5877 5875 5873 5872 5871 5871 5870 5869 5867 5865 5863 5861 5858 5855 5853 5851 5850 5848 5846 5844 5842 5840
5852 5852 5853 5854 5855 5856 5857 5859 5861 5863 5864 5865 5866 5867 5868 5869 5869 5870 5870 5871 5871 5871 5871 5872 5873 5874 5874 5874 5874 5875 5874 5875 5876 5877 5877 5877 5878 5878 5877 5876 5875 5874 5873 5871 5870 5868 5867 5866 5865 5863 5861 5859 5857 5854 5852 5849 5847 5845 5844 5842 5840 5838 5835
5847 5848 5849 5850 5851 5853 5854 5856 5858 5859 5860 5861 5862 5864 5865 5866 5866 5867 5867 5868 5869 5869 5869 5870 5871 5871 5872 5872 5872 5872 5872 5873 5874 5874 5874 5874 5874 5873 5873 5872 5871 5870 5869 5869 5867 5866 5864 5863 5861 5860 5858 5856 5853 5850 5848 5846 5844 5842 5841 5838 5836 5834 5831
5842 5843 5845 5847 5849 5850 5850 5852 5854 5855 5856 5858 5859 5861 5862 5863 5864 5864 5864 5865 5866 5867 5867 5868 5868 5869 5869 5869 5870 5870 5871 5871 5871 5871 5871 5871 5871 5870 5869 5868 5867 5866 5865 5865 5864 5863 5861 5859 5858 5856 5853 5851 5849 5846 5844 5843 5841 5839 5837 5834 5832 5830 5827
5838 5840 5843 5844 5845 5846 5846 5848 5850 5851 5853 5855 5856 5857 5858 5859 5861 5861 5862 5863 5863 5864 5865 5865 5866 5867 5867 5867 5867 5868 5868 5869 5869 5869 5869 5869 5868 5868 5866 5865 5864 5863 5862 5861 5860 5859 5858 5856 5853 5851 5848 5846 5844 5841 5839 5838 5837 5835 5833 5831 5829 5826 5824
5836 5839 5840 5840 5840 5841 5842 5844 5846 5848 5850 5851 5852 5854 5855 5856 5857 5858 5859 5860 5860 5862 5862 5863 5864 5865 5864 5864 5865 5865 5866 5866 5866 5866 5866 5866 5865 5864 5863 5862 5861 5860 5859 5857 5856 5854 5853 5851 5848 5846 5844 5841 5839 5837 5835 5834 5833 5830 5828 5826 5825 5822 5820
5834 5835 5836 5835 5836 5838 5838 5840 5843 5844 5846 5848 5849 5850 5851 5852 5854 5855 5855 5856 5857 5859 5860 5860 5861 5862 5861 5861 5862 5862 5863 5863 5862 5862 5862 5862 5861 5860 5859 5858 5857 5856 5854 5853 5851 5850 5848 5845 5843 5841 5839 5837 5834 5832 5830 5829 5828 5826 5824 5822 5820 5818 5816
5829 5830 5831 5832 5835 5836 5835 5836 5839 5840 5842 5844 5845 5846 5848 5849 5850 5851 5852 5853 5854 5855 5856 5857 5858 5858 5858 5858 5858 5859 5860 5859 5859 5858 5858 5857 5856 5856 5855 5854 5853 5851 5850 5848 5846 5844 5842 5840 5838 5837 5835 5832 5830 5828 5826 5824 5823 5821 5819 5818 5816 5814 5812
5824 5824 5825 5826 5830 5832 5832 5833 5835 5837 5839 5840 5841 5843 5844 5845 5847 5848 5848 5850 5851 5852 5853 5853 5854 5854 5855 5855 5855 5856 5856 5856 5855 5855 5854 5853 5852 5851 5850 5849 5848 5847 5845 5843 5841 5838 5836 5835 5833 5831 5830 5827 5825 5823 5822 5820 5818 5817 5815 5813 5811 5810 5808
5818 5818 5818 5820 5822 5826 5828 5830 5831 5833 5835 5837 5838 5839 5840 5842 5843 5844 5845 5846 5847 5848 5849 5850 5850 5851 5851 5852 5852 5852 5852 5852 5852 5851 5850 5849 5848 5847 5846 5845 5844 5842 5840 5838 5836 5833 5831 5829 5828 5826 5824 5822 5820 5818 5816 5815 5814 5812 5811 5810 5808 5807 5805
5810 5812 5813 5815 5818 5821 5825 5827 5828 5829 5831 5833 5834 5834 5836 5838 5840 5840 5841 5842 5844 5845 5845 5846 5847 5847 5847 5848 5848 5848 5848 5848 5848 5847 5846 5845 5844 5842 5841 5840 5839 5838 5836 5834 5831 5828 5826 5824 5823 5820 5818 5817 5815 5812 5810 5810 5809 5807 5806 5805 5804 5803 5801
5804 5807 5809 5812 5815 5818 5821 5823 5824 5826 5828 5829 5830 5831 5832 5834 5835 5835 5837 5839 5840 5840 5840 5842 5843 5843 5843 5843 5843 5844 5844 5844 5844 5843 5842 5841 5840 5838 5837 5836 5834 5833 5831 5829 5827 5824 5822 5819 5817 5814 5812 5811 5810 5808 5806 5805 5804 5802 5801 5800 5799 5798 5796
5799 5803 5805 5808 5811 5813 5816 5819 5820 5822 5824 5826 5827 5828 5829 5829 5830 5832 5834 5836 5836 5836 5836 5837 5838 5839 5839 5839 5839 5839 5839 5839 5839 5838 5837 5836 5835 5834 5833 5831 5829 5827 5826 5825 5823 5820 5817 5814 5811 5809 5807 5806 5805 5803 5802 5800 5799 5798 5796 5795 5794 5793 5790
5794 5799 5801 5803 5806 5809 5812 5815 5817 5819 5820 5822 5824 5825 5824 5824 5826 5829 5831 5831 5831 5832 5832 5833 5834 5834 5834 5835 5835 5834 5834 5833 5833 5832 5831 5830 5829 5828 5827 5826 5824 5822 5820 5819 5818 5815 5812 5809 5807 5804 5802 5801 5799 5798 5797 5795 5794 5793 5791 5790 5789 5787 5785
5789 5793 5795 5797 5801 5805 5808 5811 5812 5814 5815 5817 5819 5820 5819 5820 5823 5825 5826 5826 5827 5828 5829 5829 5830 5830 5830 5830 5830 5829 5828 5827 5826 5824 5823 5822 5822 5821 5820 5819 5818 5817 5815 5813 5812 5810 5807 5805 5802 5800 5798 5796 5794 5793 5792 5790 5789 5788 5786 5785 5783 5782 5780
5783 5787 5790 5794 5797 5800 5802 5805 5807 5809 5812 5813 5815 5815 5816 5817 5819 5820 5821 5822 5823 5824 5825 5825 5826 5826 5826 5825 5824 5824 5823 5822 5820 5818 5816 5815 5815 5815 5814 5813 5812 5811 5809 5808 5806 5804 5802 5800 5798 5796 5794 5792 5790 5788 5786 5785 5784 5783 5782 5780 5778 5776 5774
5779 5782 5785 5789 5791 5794 5797 5800 5802 5805 5807 5808 5810 5812 5813 5814 5815 5816 5817 5818 5819 5820 5820 5821 5821 5821 5820 5819 5818 5818 5818 5816 5815 5813 5811 5810 5810 5809 5808 5807 5806 5805 5803 5802 5800 5798 5797 5796 5794 5792 5790 5788 5786 5784 5781 5779 5778 5778 5777 5775 5773 5771 5769
5774 5777 5780 5782 5785 5789 5792 5795 5797 5800 5802 5804 5806 5808 5809 5810 5811 5811 5812 5813 5814 5815 5815 5815 5815 5815 5815 5814 5814 5813 5813 5812 5810 5808 5807 5806 5805 5804 5803 5802 5800 5799 5797 5796 5794 5793 5792 5791 5789 5787 5785 5783 5781 5779 5777 5774 5772 5772 5771 5769 5767 5765 5763
5769 5772 5775 5778 5781 5784 5787 5790 5793 5795 5798 5800 5801 5802 5804 5805 5806 5807 5808 5809 5809 5810 5810 5811 5811 5811 5811 5810 5809 5808 5808 5807 5805 5803 5802 5802 5800 5798 5797 5796 5794 5793 5791 5790 5789 5788 5787 5786 5784 5782 5780 5778 5777 5775 5773 5770 5768 5767 5766 5764 5762 5760 5758
5765 5768 5771 5773 5776 5779 5781 5785 5787 5789 5792 5794 5796 5798 5799 5800 5801 5802 5803 5804 5804 5805 5805 5806 5806 5806 5805 5805 5804 5803 5803 5801 5799 5797 5797 5797 5795 5793 5792 5790 5789 5787 5786 5785 5784 5783 5782 5780 5779 5777 5775 5773 5772 5771 5769 5766 5764 5762 5761 5759 5756 5755 5753
5760 5763 5766 5768 5771 5774 5776 5779 5782 5785 5787 5789 5791 5793 5794 5795 5796 5797 5797 5798 5799 5799 5800 5800 5800 5800 5800 5799 5798 5797 5796 5794 5792 5791 5792 5791 5790 5788 5787 5785 5783 5782 5781 5780 5779 5778 5777 5775 5773 5772 5771 5769 5768 5766 5764 5762 5759 5757 5756 5754 5752 5750 5748
5754 5757 5760 5764 5767 5770 5772 5775 5777 5780 5782 5784 5786 5787 5788 5790 5791 5791 5792 5793 5793 5794 5794 5794 5795 5795 5794 5792 5791 5791 5790 5788 5787 5787 5786 5785 5784 5783 5781 5779 5778 5777 5776 5775 5774 5773 5771 5769 5768 5767 5766 5765 5763 5761 5759 5756 5754 5752 5750 5748 5746 5744 5742
5749 5752 5755 5759 5762 5765 5767 5770 5772 5775 5776 5778 5780 5781 5782 5784 5784 5785 5787 5788 5788 5789 5788 5788 5789 5789 5788 5786 5786 5785 5784 5783 5782 5782 5781 5780 5778 5777 5775 5774 5773 5771 5770 5770 5769 5767 5766 5764 5763 5762 5760 5759 5757 5755 5753 5750 5748 5746 5745 5743 5741 5739 5737
5744 5747 5750 5753 5757 5759 5762 5764 5767 5769 5770 5772 5773 5775 5776 5777 5778 5780 5782 5782 5782 5783 5782 5782 5782 5782 5782 5781 5780 5779 5778 5778 5777 5776 5775 5774 5772 5771 5770 5768 5767 5766 5765 5764 5763 5762 5761 5759 5757 5756 5755 5753 5750 5749 5747 5744 5742 5741 5739 5737 5735 5733 5731
5740 5743 5746 5749 5752 5754 5757 5759 5761 5762 5764 5765 5767 5768 5770 5771 5773 5775 5776 5776 5776 5776 5776 5776 5776 5775 5775 5774 5774 5773 5772 5771 5771 5770 5768 5767 5766 5765 5764 5763 5762 5761 5760 5759 5758 5757 5755 5754 5752 5751 5749 5747 5745 5743 5741 5739 5737 5735 5733 5731 5729 5728 5726